datetime,storage
2008-01-01,-158.46121
2008-01-02,-174.14549
2008-01-03,-177.52717
2008-01-04,-180.908
2008-01-05,39.8858926
2008-01-06,167.546974
2008-01-07,295.207931
2008-01-08,266.720527
2008-01-09,316.307304
2008-01-10,328.784612
2008-01-11,300.29721
2008-01-12,270.809807
2008-01-13,242.32228
2008-01-14,262.15699
2008-01-15,221.192154
2008-01-16,262.15699
2008-01-17,262.15699
2008-01-18,262.15699
2008-01-19,262.15699
2008-01-20,262.15699
2008-01-21,262.15699
2008-01-22,262.15699
2008-01-23,262.15699
2008-01-24,377.340639
2008-01-25,377.340639
2008-01-26,377.340639
2008-01-27,456.414818
2008-01-28,653.539857
2008-01-29,653.539857
2008-01-30,612.563303
2008-01-31,612.563303
2008-02-01,653.539857
2008-02-02,653.539857
2008-02-03,967.824982
2008-02-04,1124.97347
2008-02-05,1162.08281
2008-02-06,1162.08281
2008-02-07,1199.19215
2008-02-08,1240.15894
2008-02-09,1278.24498
2008-02-10,1278.24498
2008-02-11,1278.24498
2008-02-12,1319.23129
2008-02-13,1397.31133
2008-02-14,1435.39724
2008-02-15,1435.39724
2008-02-16,1513.48912
2008-02-17,1555.45396
2008-02-18,1592.5633
2008-02-19,1555.45396
2008-02-20,1476.37965
2008-02-21,1397.31133
2008-02-22,1476.37965
2008-02-23,1435.39724
2008-02-24,1513.48912
2008-02-25,1513.48912
2008-02-26,1513.48912
2008-02-27,1435.39724
2008-02-28,1397.31133
2008-02-29,1397.31133
2008-03-01,1397.31133
2008-03-02,1435.39724
2008-03-03,1397.31133
2008-03-04,1356.34064
2008-03-05,1279.3047
2008-03-06,1160.30575
2008-03-07,1015.17037
2008-03-08,940.274884
2008-03-09,872.238952
2008-03-10,846.287654
2008-03-11,782.339087
2008-03-12,784.408354
2008-03-13,763.60414
2008-03-14,858.886652
2008-03-15,957.148796
2008-03-16,1060.39977
2008-03-17,1124.69025
2008-03-18,1160.84878
2008-03-19,1304.0807
2008-03-20,1558.67971
2008-03-21,2012.5681
2008-03-22,2335.4841
2008-03-23,2785.52882
2008-03-24,3308.92515
2008-03-25,3833.45442
2008-03-26,4565.63187
2008-03-27,5201.99747
2008-03-28,5134.5578
2008-03-29,4863.58443
2008-03-30,4530.47868
2008-03-31,4080.22042
2008-04-01,3555.78942
2008-04-02,2942.54846
2008-04-03,2368.86863
2008-04-04,1979.96558
2008-04-05,1696.64132
2008-04-06,1388.97312
2008-04-07,1031.3273
2008-04-08,749.002673
2008-04-09,549.446088
2008-04-10,419.661691
2008-04-11,340.188811
2008-04-12,289.093406
2008-04-13,233.208278
2008-04-14,135.602666
2008-04-15,39.8117972
2008-04-16,147.990513
2008-04-17,327.491527
2008-04-18,469.600597
2008-04-19,519.763112
2008-04-20,525.939613
2008-04-21,579.251977
2008-04-22,572.726917
2008-04-23,563.201314
2008-04-24,594.640275
2008-04-25,634.070832
2008-04-26,693.982295
2008-04-27,769.942027
2008-04-28,864.020551
2008-04-29,643.928223
2008-04-30,626.461737
2008-05-01,626.461737
2008-05-02,626.461737
2008-05-03,626.461737
2008-05-04,626.461737
2008-05-05,626.461737
2008-05-06,626.461737
2008-05-07,626.461737
2008-05-08,626.461737
2008-05-09,626.461737
2008-05-10,626.461737
2008-05-11,626.461737
2008-05-12,626.461737
2008-05-13,626.461737
2008-05-14,626.461737
2008-05-15,626.461737
2008-05-16,626.461737
2008-05-17,626.461737
2008-05-18,626.461737
2008-05-19,626.461737
2008-05-20,626.461737
2008-05-21,626.461737
2008-05-22,626.461737
2008-05-23,626.461737
2008-05-24,626.461737
2008-05-25,626.461737
2008-05-26,626.461737
2008-05-27,626.461737
2008-05-28,626.461737
2008-05-29,626.461737
2008-05-30,626.461737
2008-05-31,626.461737
2008-06-01,626.461737
2008-06-02,626.461737
2008-06-03,626.461737
2008-06-04,626.461737
2008-06-05,626.461737
2008-06-06,626.461737
2008-06-07,626.461737
2008-06-08,626.461737
2008-06-09,626.461737
2008-06-10,626.461737
2008-06-11,626.461737
2008-06-12,626.461737
2008-06-13,626.461737
2008-06-14,626.461737
2008-06-15,626.461737
2008-06-16,626.461737
2008-06-17,626.461737
2008-06-18,626.461737
2008-06-19,626.461737
2008-06-20,626.461737
2008-06-21,626.461737
2008-06-22,626.461737
2008-06-23,626.461737
2008-06-24,626.461737
2008-06-25,626.461737
2008-06-26,626.461737
2008-06-27,626.461737
2008-06-28,626.461737
2008-06-29,626.461737
2008-06-30,626.461737
2008-07-01,773.133986
2008-07-02,617.439364
2008-07-03,628.822014
2008-07-04,540.620954
2008-07-05,433.308444
2008-07-06,399.039467
2008-07-07,366.7527
2008-07-08,362.230291
2008-07-09,357.703645
2008-07-10,353.174044
2008-07-11,348.644009
2008-07-12,297.839348
2008-07-13,-544.51623
2008-07-14,-504.27395
2008-07-15,-491.0038
2008-07-16,-464.21128
2008-07-17,-628.27207
2008-07-18,-316.00806
2008-07-19,-315.34052
2008-07-20,175.94461
2008-07-21,269.712266
2008-07-22,267.861427
2008-07-23,349.749957
2008-07-24,279.636723
2008-07-25,255.159142
2008-07-26,305.273401
2008-07-27,328.426823
2008-07-28,303.314328
2008-07-29,326.46775
2008-07-30,318.365887
2008-07-31,354.192648
2008-08-01,354.192648
2008-08-02,354.192648
2008-08-03,354.192648
2008-08-04,354.192648
2008-08-05,354.192648
2008-08-06,354.192648
2008-08-07,354.192648
2008-08-08,354.192648
2008-08-09,354.192648
2008-08-10,354.192648
2008-08-11,354.192648
2008-08-12,354.192648
2008-08-13,354.192648
2008-08-14,354.192648
2008-08-15,354.192648
2008-08-16,354.192648
2008-08-17,354.192648
2008-08-18,354.192648
2008-08-19,354.192648
2008-08-20,354.192648
2008-08-21,354.192648
2008-08-22,354.192648
2008-08-23,354.192648
2008-08-24,354.192648
2008-08-25,354.192648
2008-08-26,354.192648
2008-08-27,354.192648
2008-08-28,354.192648
2008-08-29,354.192648
2008-08-30,354.192648
2008-08-31,354.192648
2008-09-01,354.192648
2008-09-02,354.192648
2008-09-03,354.192648
2008-09-04,354.192648
2008-09-05,354.192648
2008-09-06,354.192648
2008-09-07,354.192648
2008-09-08,354.192648
2008-09-09,354.192648
2008-09-10,354.192648
2008-09-11,354.192648
2008-09-12,354.192648
2008-09-13,354.192648
2008-09-14,354.192648
2008-09-15,354.192648
2008-09-16,354.192648
2008-09-17,354.192648
2008-09-18,354.192648
2008-09-19,354.192648
2008-09-20,354.192648
2008-09-21,354.192648
2008-09-22,354.192648
2008-09-23,354.192648
2008-09-24,354.192648
2008-09-25,354.192648
2008-09-26,354.192648
2008-09-27,354.192648
2008-09-28,354.192648
2008-09-29,354.192648
2008-09-30,354.192648
2008-10-01,354.192648
2008-10-02,354.192648
2008-10-03,354.192648
2008-10-04,354.192648
2008-10-05,354.192648
2008-10-06,354.192648
2008-10-07,354.192648
2008-10-08,354.192648
2008-10-09,354.192648
2008-10-10,354.192648
2008-10-11,354.192648
2008-10-12,354.192648
2008-10-13,354.192648
2008-10-14,354.192648
2008-10-15,354.192648
2008-10-16,354.192648
2008-10-17,354.192648
2008-10-18,354.192648
2008-10-19,354.192648
2008-10-20,354.192648
2008-10-21,354.192648
2008-10-22,354.192648
2008-10-23,354.192648
2008-10-24,354.192648
2008-10-25,354.192648
2008-10-26,354.192648
2008-10-27,354.192648
2008-10-28,354.192648
2008-10-29,354.192648
2008-10-30,354.192648
2008-10-31,354.192648
2008-11-01,354.192648
2008-11-02,354.192648
2008-11-03,354.192648
2008-11-04,354.192648
2008-11-05,354.192648
2008-11-06,354.192648
2008-11-07,354.192648
2008-11-08,354.184715
2008-11-09,354.184715
2008-11-10,354.184715
2008-11-11,354.184715
2008-11-12,354.184715
2008-11-13,354.184715
2008-11-14,354.184715
2008-11-15,354.184715
2008-11-16,354.184715
2008-11-17,354.184715
2008-11-18,354.184715
2008-11-19,354.184715
2008-11-20,354.184715
2008-11-21,354.184715
2008-11-22,354.184715
2008-11-23,354.184715
2008-11-24,354.184715
2008-11-25,354.184715
2008-11-26,354.184715
2008-11-27,354.184715
2008-11-28,354.184715
2008-11-29,354.184715
2008-11-30,354.184715
2008-12-01,390.769677
2008-12-02,423.079375
2008-12-03,361.299121
2008-12-04,337.695455
2008-12-05,333.588693
2008-12-06,329.489123
2008-12-07,329.316039
2008-12-08,379.477419
2008-12-09,427.383062
2008-12-10,341.523041
2008-12-11,346.506694
2008-12-12,352.488103
2008-12-13,363.717878
2008-12-14,296.929393
2008-12-15,292.893561
2008-12-16,433.445334
2008-12-17,601.092553
2008-12-18,586.589204
2008-12-19,618.044879
2008-12-20,517.437131
2008-12-21,284.809934
2008-12-22,739.747272
2008-12-23,830.330571
2008-12-24,856.931741
2008-12-25,1119.43924
2008-12-26,1112.69884
2008-12-27,1021.87446
2008-12-28,1074.23846
2008-12-29,1040.53508
2008-12-30,1009.67735
2008-12-31,1031.69104
2009-01-01,681.695859
2009-01-02,681.695859
2009-01-03,681.695859
2009-01-04,990.94
2009-01-05,990.94
2009-01-06,990.94
2009-01-07,990.94
2009-01-08,990.94
2009-01-09,990.94
2009-01-10,948.947813
2009-01-11,901.856016
2009-01-12,901.856016
2009-01-13,901.856016
2009-01-14,859.863828
2009-01-15,859.863828
2009-01-16,812.772031
2009-01-17,812.772031
2009-01-18,812.772031
2009-01-19,812.772031
2009-01-20,812.772031
2009-01-21,812.772031
2009-01-22,812.772031
2009-01-23,812.772031
2009-01-24,948.947813
2009-01-25,990.94
2009-01-26,1038.0318
2009-01-27,1038.0318
2009-01-28,990.94
2009-01-29,990.94
2009-01-30,990.94
2009-01-31,990.94
2009-02-01,990.94
2009-02-02,990.94
2009-02-03,990.94
2009-02-04,990.94
2009-02-05,990.94
2009-02-06,1038.0318
2009-02-07,1038.0318
2009-02-08,1038.0318
2009-02-09,1038.0318
2009-02-10,1080.02398
2009-02-11,1080.02398
2009-02-12,1121.1296
2009-02-13,1113.1522
2009-02-14,1108.16385
2009-02-15,1104.16525
2009-02-16,1096.18785
2009-02-17,1088.21045
2009-02-18,1088.21045
2009-02-19,1088.21045
2009-02-20,1082.21255
2009-02-21,1076.21465
2009-02-22,1069.227
2009-02-23,1102.21905
2009-02-24,1130.38214
2009-02-25,1129.44549
2009-02-26,1253.71546
2009-02-27,1292.90201
2009-02-28,1344.0587
2009-03-01,1483.30007
2009-03-02,1604.58295
2009-03-03,1701.90906
2009-03-04,1856.19344
2009-03-05,2060.58316
2009-03-06,2459.50736
2009-03-07,2503.78356
2009-03-08,2573.67689
2009-03-09,2616.86068
2009-03-10,2619.90944
2009-03-11,2545.00469
2009-03-12,2534.08144
2009-03-13,2567.29304
2009-03-14,2522.38304
2009-03-15,2554.57131
2009-03-16,2522.83283
2009-03-17,2569.33913
2009-03-18,2708.38881
2009-03-19,2750.6345
2009-03-20,2728.06495
2009-03-21,2714.69058
2009-03-22,2582.34501
2009-03-23,2426.04743
2009-03-24,2547.35231
2009-03-25,2146.88637
2009-03-26,2062.59023
2009-03-27,1899.97099
2009-03-28,1816.40493
2009-03-29,1632.77292
2009-03-30,1330.05823
2009-03-31,1201.31623
2009-04-01,1033.39606
2009-04-02,866.212193
2009-04-03,701.943257
2009-04-04,561.650326
2009-04-05,427.312216
2009-04-06,292.94093
2009-04-07,159.926064
2009-04-08,53.6047228
2009-04-09,21.790116
2009-04-10,43.0472392
2009-04-11,206.965534
2009-04-12,376.646743
2009-04-13,540.273761
2009-04-14,771.234941
2009-04-15,920.498701
2009-04-16,1045.7571
2009-04-17,1133.49085
2009-04-18,1170.27288
2009-04-19,1180.71523
2009-04-20,1177.1853
2009-04-21,1040.30434
2009-04-22,885.011481
2009-04-23,725.037648
2009-04-24,576.120692
2009-04-25,494.54141
2009-04-26,398.814906
2009-04-27,367.709612
2009-04-28,221.956778
2009-04-29,67.3294439
2009-04-30,0.132864565
2009-05-01,0.132864565
2009-05-02,0.132864565
2009-05-03,0.132864565
2009-05-04,0.132864565
2009-05-05,0.132864565
2009-05-06,0.132864565
2009-05-07,0.132864565
2009-05-08,0.132864565
2009-05-09,0.132864565
2009-05-10,0.132864565
2009-05-11,0.132864565
2009-05-12,0.132864565
2009-05-13,0.132864565
2009-05-14,0.132864565
2009-05-15,0.132864565
2009-05-16,0.132864565
2009-05-17,0.132864565
2009-05-18,0.132864565
2009-05-19,0.132864565
2009-05-20,0.132864565
2009-05-21,0.132864565
2009-05-22,0.132864565
2009-05-23,0.132864565
2009-05-24,0.132864565
2009-05-25,0.132864565
2009-05-26,0.132864565
2009-05-27,0.132864565
2009-05-28,0.132864565
2009-05-29,0.132864565
2009-05-30,0.132864565
2009-05-31,0.132864565
2009-06-01,168.536686
2009-06-02,178.601537
2009-06-03,128.624116
2009-06-04,120.562054
2009-06-05,128.116444
2009-06-06,171.443327
2009-06-07,232.397874
2009-06-08,265.568909
2009-06-09,297.419212
2009-06-10,314.812438
2009-06-11,424.475702
2009-06-12,533.874013
2009-06-13,566.636081
2009-06-14,595.894322
2009-06-15,609.569508
2009-06-16,630.490843
2009-06-17,662.107516
2009-06-18,699.683564
2009-06-19,738.446149
2009-06-20,705.432449
2009-06-21,762.320477
2009-06-22,808.316594
2009-06-23,829.09445
2009-06-24,738.655651
2009-06-25,418.492336
2009-06-26,192.942565
2009-06-27,234.302942
2009-06-28,274.763399
2009-06-29,258.722363
2009-06-30,326.252339
2009-07-01,461.588433
2009-07-02,314.114612
2009-07-03,127.155255
2009-07-04,-92.032241
2009-07-05,-220.57039
2009-07-06,-103.41123
2009-07-07,-15.989344
2009-07-08,61.4042871
2009-07-09,118.95511
2009-07-10,215.791281
2009-07-11,263.422086
2009-07-12,320.779353
2009-07-13,395.317262
2009-07-14,452.551924
2009-07-15,502.327881
2009-07-16,539.789084
2009-07-17,586.991472
2009-07-18,624.300993
2009-07-19,644.372122
2009-07-20,649.670179
2009-07-21,659.906633
2009-07-22,682.483732
2009-07-23,697.608288
2009-07-24,707.892412
2009-07-25,720.637378
2009-07-26,723.513683
2009-07-27,721.554888
2009-07-28,729.334467
2009-07-29,729.687385
2009-07-30,653.993553
2009-07-31,443.762212
2009-08-01,443.762212
2009-08-02,443.762212
2009-08-03,443.762212
2009-08-04,443.762212
2009-08-05,443.762212
2009-08-06,443.762212
2009-08-07,443.762212
2009-08-08,443.762212
2009-08-09,443.762212
2009-08-10,443.762212
2009-08-11,443.762212
2009-08-12,443.762212
2009-08-13,443.762212
2009-08-14,443.762212
2009-08-15,443.762212
2009-08-16,443.762212
2009-08-17,443.762212
2009-08-18,443.762212
2009-08-19,443.762212
2009-08-20,443.762212
2009-08-21,443.762212
2009-08-22,443.762212
2009-08-23,443.762212
2009-08-24,443.762212
2009-08-25,443.762212
2009-08-26,443.762212
2009-08-27,443.762212
2009-08-28,443.762212
2009-08-29,443.762212
2009-08-30,443.762212
2009-08-31,443.762212
2009-09-01,443.762212
2009-09-02,443.762212
2009-09-03,443.762212
2009-09-04,443.762212
2009-09-05,443.762212
2009-09-06,443.762212
2009-09-07,443.762212
2009-09-08,443.762212
2009-09-09,443.762212
2009-09-10,443.762212
2009-09-11,443.762212
2009-09-12,443.762212
2009-09-13,443.762212
2009-09-14,443.762212
2009-09-15,443.762212
2009-09-16,443.762212
2009-09-17,443.762212
2009-09-18,443.765766
2009-09-19,443.765766
2009-09-20,443.765766
2009-09-21,443.765766
2009-09-22,443.765766
2009-09-23,443.765766
2009-09-24,443.755848
2009-09-25,443.755848
2009-09-26,443.75122
2009-09-27,443.75122
2009-09-28,443.75122
2009-09-29,443.75122
2009-09-30,350.000394
2009-10-01,350.000394
2009-10-02,350.000394
2009-10-03,350.000394
2009-10-04,350.000394
2009-10-05,350.000394
2009-10-06,350.000394
2009-10-07,350.000394
2009-10-08,350.000394
2009-10-09,350.000394
2009-10-10,350.000394
2009-10-11,350.000394
2009-10-12,350.000394
2009-10-13,350.000394
2009-10-14,350.000394
2009-10-15,350.000394
2009-10-16,350.000394
2009-10-17,350.000394
2009-10-18,350.000394
2009-10-19,350.000394
2009-10-20,350.000394
2009-10-21,350.000394
2009-10-22,350.000394
2009-10-23,350.000394
2009-10-24,350.000394
2009-10-25,350.000394
2009-10-26,350.000394
2009-10-27,350.000394
2009-10-28,350.000394
2009-10-29,350.000394
2009-10-30,350.000394
2009-10-31,350.000394
2009-11-01,350.000394
2009-11-02,350.000394
2009-11-03,350.000394
2009-11-04,350.000394
2009-11-05,350.000394
2009-11-06,350.000394
2009-11-07,350.000394
2009-11-08,350.000394
2009-11-09,350.000394
2009-11-10,350.000394
2009-11-11,350.000394
2009-11-12,350.000394
2009-11-13,350.000394
2009-11-14,350.000394
2009-11-15,350.000394
2009-11-16,350.000394
2009-11-17,350.000394
2009-11-18,350.000394
2009-11-19,350.000394
2009-11-20,350.000394
2009-11-21,350.000394
2009-11-22,350.000394
2009-11-23,350.000394
2009-11-24,350.000394
2009-11-25,350.000394
2009-11-26,350.000394
2009-11-27,350.000394
2009-11-28,350.000394
2009-11-29,350.000394
2009-11-30,350.000394
2009-12-01,350.000394
2009-12-02,350.000394
2009-12-03,350.000394
2009-12-04,350.000394
2009-12-05,350.000394
2009-12-06,350.000394
2009-12-07,350.000394
2009-12-08,350.000394
2009-12-09,350.000394
2009-12-10,350.000394
2009-12-11,350.000394
2009-12-12,350.000394
2009-12-13,350.000394
2009-12-14,350.000394
2009-12-15,350.000394
2009-12-16,350.000394
2009-12-17,350.000394
2009-12-18,350.006014
2009-12-19,350.006014
2009-12-20,350.006014
2009-12-21,350.006014
2009-12-22,350.006014
2009-12-23,350.006014
2009-12-24,350.006014
2009-12-25,350.006014
2009-12-26,350.006014
2009-12-27,350.006014
2009-12-28,350.006014
2009-12-29,350.006014
2009-12-30,350.006014
2009-12-31,350.006014
2010-01-01,-3.9387141
2010-01-02,-7.8774282
2010-01-03,-11.816142
2010-01-04,-15.754443
2010-01-05,-19.692744
2010-01-06,-23.63061
2010-01-07,-27.568477
2010-01-08,-31.506344
2010-01-09,-35.443797
2010-01-10,-39.381251
2010-01-11,-43.318704
2010-01-12,-47.255723
2010-01-13,-51.192743
2010-01-14,-55.129762
2010-01-15,-59.066781
2010-01-16,-63.003387
2010-01-17,-66.939993
2010-01-18,-70.877013
2010-01-19,-46.257812
2010-01-20,0.878906254
2010-01-21,269.96875
2010-01-22,408.175781
2010-01-23,408.175781
2010-01-24,361.033203
2010-01-25,361.033203
2010-01-26,361.033203
2010-01-27,361.033203
2010-01-28,408.175781
2010-01-29,452.121094
2010-01-30,452.121094
2010-01-31,452.121094
2010-02-01,452.121094
2010-02-02,499.263672
2010-02-03,452.121094
2010-02-04,452.121094
2010-02-05,452.121094
2010-02-06,499.263672
2010-02-07,590.351562
2010-02-08,681.439453
2010-02-09,634.296875
2010-02-10,634.296875
2010-02-11,634.296875
2010-02-12,681.439453
2010-02-13,681.439453
2010-02-14,634.296875
2010-02-15,634.296875
2010-02-16,634.296875
2010-02-17,590.351562
2010-02-18,634.296875
2010-02-19,634.296875
2010-02-20,681.439453
2010-02-21,772.527344
2010-02-22,863.615235
2010-02-23,863.615235
2010-02-24,816.472656
2010-02-25,863.615235
2010-02-26,863.615235
2010-02-27,816.472656
2010-02-28,863.615235
2010-03-01,863.615235
2010-03-02,863.615235
2010-03-03,907.560547
2010-03-04,998.648438
2010-03-05,954.703125
2010-03-06,863.615235
2010-03-07,954.703125
2010-03-08,954.703125
2010-03-09,907.560547
2010-03-10,863.615235
2010-03-11,863.615235
2010-03-12,816.472656
2010-03-13,772.527344
2010-03-14,772.527344
2010-03-15,681.439453
2010-03-16,634.296875
2010-03-17,634.296875
2010-03-18,626.312875
2010-03-19,710.414766
2010-03-20,701.432766
2010-03-21,682.470766
2010-03-22,650.534767
2010-03-23,641.789345
2010-03-24,639.826655
2010-03-25,604.896653
2010-03-26,661.054543
2010-03-27,673.26712
2010-03-28,695.256434
2010-03-29,752.412324
2010-03-30,1066.86389
2010-03-31,1365.61934
2010-04-01,1481.60685
2010-04-02,1430.70077
2010-04-03,1404.94428
2010-04-04,1425.97861
2010-04-05,1715.9023
2010-04-06,1920.66707
2010-04-07,1940.5902
2010-04-08,1860.76423
2010-04-09,1850.74771
2010-04-10,1838.77657
2010-04-11,1771.90477
2010-04-12,1716.33578
2010-04-13,1806.12291
2010-04-14,1662.68294
2010-04-15,1426.3945
2010-04-16,1260.10093
2010-04-17,2604.1805
2010-04-18,2502.68324
2010-04-19,2398.69113
2010-04-20,2356.56542
2010-04-21,2100.59394
2010-04-22,1927.30785
2010-04-23,1588.49648
2010-04-24,1325.43158
2010-04-25,959.282946
2010-04-26,531.526265
2010-04-27,261.318883
2010-04-28,123.409311
2010-04-29,-9.5102985
2010-04-30,36.1579236
2010-05-01,36.1579236
2010-05-02,36.1579236
2010-05-03,36.1579236
2010-05-04,36.1579236
2010-05-05,36.1579236
2010-05-06,36.1579236
2010-05-07,36.1579236
2010-05-08,36.1579236
2010-05-09,36.1579236
2010-05-10,36.1579236
2010-05-11,36.1579236
2010-05-12,36.1579236
2010-05-13,36.1579236
2010-05-14,36.1579236
2010-05-15,36.1579236
2010-05-16,36.1579236
2010-05-17,36.1579236
2010-05-18,36.1579236
2010-05-19,36.1579236
2010-05-20,36.1579236
2010-05-21,36.1579236
2010-05-22,36.1579236
2010-05-23,36.1579236
2010-05-24,36.1579236
2010-05-25,36.1579236
2010-05-26,36.1579236
2010-05-27,36.1579236
2010-05-28,36.1579236
2010-05-29,36.1579236
2010-05-30,36.1579236
2010-05-31,36.1579236
2010-06-01,-6.1838173
2010-06-02,3.89316232
2010-06-03,-19.797636
2010-06-04,-74.160862
2010-06-05,-133.94266
2010-06-06,-193.58738
2010-06-07,-238.88549
2010-06-08,-278.30391
2010-06-09,-388.71718
2010-06-10,-395.3954
2010-06-11,-365.67259
2010-06-12,-322.09784
2010-06-13,-276.68145
2010-06-14,-216.08688
2010-06-15,-128.2277
2010-06-16,-58.256781
2010-06-17,36.8023204
2010-06-18,141.345322
2010-06-19,263.741368
2010-06-20,377.658466
2010-06-21,479.47656
2010-06-22,582.39898
2010-06-23,495.820489
2010-06-24,561.374317
2010-06-25,625.719271
2010-06-26,687.662535
2010-06-27,754.351746
2010-06-28,802.960479
2010-06-29,834.68521
2010-06-30,854.365465
2010-07-01,876.478468
2010-07-02,886.579768
2010-07-03,907.638618
2010-07-04,952.53624
2010-07-05,975.766642
2010-07-06,1004.93664
2010-07-07,1025.66625
2010-07-08,1036.78387
2010-07-09,1045.68784
2010-07-10,1066.42381
2010-07-11,1071.50938
2010-07-12,1077.79298
2010-07-13,1085.21418
2010-07-14,1085.42379
2010-07-15,1083.2262
2010-07-16,1083.41705
2010-07-17,1087.19391
2010-07-18,1081.3784
2010-07-19,1081.55611
2010-07-20,1079.32746
2010-07-21,1074.69925
2010-07-22,1068.87611
2010-07-23,1079.8774
2010-07-24,1100.4938
2010-07-25,1155.87857
2010-07-26,1169.46888
2010-07-27,1186.49079
2010-07-28,1193.90351
2010-07-29,1198.89746
2010-07-30,1195.55098
2010-07-31,1260.70883
2010-08-01,1300.55105
2010-08-02,1609.11046
2010-08-03,1651.60137
2010-08-04,1602.76793
2010-08-05,1710.92243
2010-08-06,1823.66981
2010-08-07,1910.57241
2010-08-08,1951.13529
2010-08-09,2165.11285
2010-08-10,2230.19592
2010-08-11,2300.72035
2010-08-12,1961.34992
2010-08-13,2001.55477
2010-08-14,2050.24986
2010-08-15,2051.13049
2010-08-16,2303.03298
2010-08-17,2333.77216
2010-08-18,2377.0145
2010-08-19,2328.63946
2010-08-20,2272.26099
2010-08-21,2227.86651
2010-08-22,2291.56169
2010-08-23,2458.35853
2010-08-24,2363.13635
2010-08-25,2426.78723
2010-08-26,2381.41676
2010-08-27,1248.39402
2010-08-28,1264.31047
2010-08-29,546.059036
2010-08-30,533.874107
2010-08-31,386.928248
2010-09-01,386.928248
2010-09-02,386.928248
2010-09-03,386.928248
2010-09-04,386.928248
2010-09-05,386.928248
2010-09-06,386.928248
2010-09-07,386.928248
2010-09-08,386.93519
2010-09-09,386.93833
2010-09-10,386.941471
2010-09-11,386.944611
2010-09-12,386.94957
2010-09-13,386.952711
2010-09-14,386.952711
2010-09-15,386.956016
2010-09-16,386.949405
2010-09-17,386.949405
2010-09-18,386.945107
2010-09-19,386.940149
2010-09-20,386.943868
2010-09-21,386.947008
2010-09-22,386.947008
2010-09-23,386.947008
2010-09-24,386.947008
2010-09-25,386.953454
2010-09-26,386.956595
2010-09-27,386.956595
2010-09-28,386.956595
2010-09-29,386.206099
2010-09-30,386.206099
2010-10-01,386.206099
2010-10-02,386.206099
2010-10-03,386.206099
2010-10-04,386.206099
2010-10-05,386.206099
2010-10-06,386.206099
2010-10-07,386.206099
2010-10-08,386.206099
2010-10-09,386.206099
2010-10-10,386.206099
2010-10-11,386.206099
2010-10-12,386.206099
2010-10-13,386.206099
2010-10-14,386.206099
2010-10-15,386.206099
2010-10-16,386.206099
2010-10-17,386.206099
2010-10-18,386.206099
2010-10-19,386.206099
2010-10-20,386.206099
2010-10-21,386.206099
2010-10-22,386.206099
2010-10-23,386.206099
2010-10-24,386.206099
2010-10-25,386.206099
2010-10-26,386.206099
2010-10-27,386.206099
2010-10-28,386.206099
2010-10-29,386.206099
2010-10-30,386.206099
2010-10-31,386.206099
2010-11-01,386.206099
2010-11-02,386.206099
2010-11-03,386.206099
2010-11-04,386.206099
2010-11-05,386.206099
2010-11-06,386.206099
2010-11-07,386.206099
2010-11-08,386.206099
2010-11-09,386.206099
2010-11-10,386.206099
2010-11-11,386.206099
2010-11-12,386.206099
2010-11-13,386.206099
2010-11-14,386.206099
2010-11-15,386.206099
2010-11-16,386.206099
2010-11-17,386.206099
2010-11-18,386.206099
2010-11-19,386.206099
2010-11-20,386.206099
2010-11-21,386.206099
2010-11-22,386.206099
2010-11-23,386.206099
2010-11-24,386.206099
2010-11-25,386.206099
2010-11-26,386.206099
2010-11-27,386.206099
2010-11-28,386.206099
2010-11-29,386.206099
2010-11-30,386.206099
2010-12-01,386.206099
2010-12-02,386.206099
2010-12-03,386.206099
2010-12-04,386.206099
2010-12-05,386.206099
2010-12-06,386.206099
2010-12-07,386.206099
2010-12-08,386.206099
2010-12-09,386.206099
2010-12-10,386.206099
2010-12-11,386.206099
2010-12-12,386.206099
2010-12-13,386.206099
2010-12-14,386.206099
2010-12-15,386.206099
2010-12-16,386.206099
2010-12-17,386.206099
2010-12-18,386.206099
2010-12-19,386.206099
2010-12-20,386.206099
2010-12-21,386.206099
2010-12-22,386.206099
2010-12-23,386.206099
2010-12-24,386.206099
2010-12-25,386.206099
2010-12-26,386.206099
2010-12-27,386.206099
2010-12-28,386.206099
2010-12-29,386.206099